Lid_Strength_Index
6 5 5 5 5 5 5 5 5 5 4 3 3 3 4 5 6 7 7 8 9 8
6 6 5 6 5 5 5 5 7 6 6 5 4 3 3 5 6 7 7 8 8 8
7 6 6 6 6 6 6 6 7 7 6 6 5 4 4 5 6 7 7 8 8 8
8 7 7 6 6 6 7 7 7 7 6 6 6 6 6 6 6 8 8 8 8 9
8 8 8 7 7 8 7 8 7 8 7 7 6 7 7 7 8 9 9 9 9 9
8 9 8 8 8 9 9 9 9 9 9 8 8 8 8 7 8 9 8 9 9 9
9 9 9 9 9 9 9 9 10 11 9 10 10 9 9 9 9 10 9 10 10 10
9 9 10 10 11 11 11 10 10 11 12 12 13 12 12 12 11 11 11 12 12 12
12 12 12 12 12 12 12 12 12 13 13 14 12 11 10 12 12 13 13 13 14 14
14 14 13 12 12 13 12 13 13 13 14 14 14 11 11 11 13 14 14 14 15 15
13 14 15 15 15 13 14 15 15 16 16 16 15 12 11 11 14 14 14 14 15 15
15 14 15 15 16 17 17 18 18 17 16 15 15 12 11 12 14 15 15 15 15 15
15 15 16 16 17 17 18 17 15 14 14 15 14 13 12 13 15 16 16 15 15 14
15 16 16 18 18 19 18 15 15 16 16 15 15 14 12 13 15 15 16 15 15 14